• In Hungary
  • List of Countries
  • For 7 days
  • Water Temperature
  • Satellite Maps
  • Weather Map
  • News
  • Weather Widgets
  • user-avatar
    Login

    Hourly Weather Ryabinovka

    Today, 15 October, Monday

    Time Temperature Precipitation Wind Pressure Humidity
    00:00 +10°C° 0 mm 3 mps 753 mmHg 92%
    01:00 +10°C° 0 mm 3 mps 753 mmHg 92%
    02:00 +9°C° 0 mm 2 mps 754 mmHg 94%
    03:00 +8°C° 0 mm 2 mps 753 mmHg 94%
    04:00 +8°C° 0 mm 2 mps 753 mmHg 94%
    05:00 +8°C° 0 mm 2 mps 753 mmHg 94%
    06:00 +9°C° 0 mm 2 mps 753 mmHg 92%
    07:00 +9°C° 0 mm 2 mps 753 mmHg 89%
    08:00 +10°C° 0 mm 3 mps 754 mmHg 86%
    09:00 +11°C° 0 mm 3 mps 754 mmHg 81%
    10:00 +13°C° 0 mm 3 mps 754 mmHg 76%
    11:00 +14°C° 0 mm 3 mps 754 mmHg 70%
    12:00 +16°C° 0 mm 3 mps 754 mmHg 69%
    13:00 +16°C° 0 mm 3 mps 754 mmHg 67%
    14:00 +17°C° 0 mm 3 mps 753 mmHg 66%
    15:00 +14°C° 0 mm 3 mps 753 mmHg 71%
    16:00 +13°C° 0 mm 3 mps 753 mmHg 77%
    17:00 +11°C° 0 mm 3 mps 753 mmHg 83%
    18:00 +11°C° 0 mm 3 mps 753 mmHg 85%
    19:00 +10°C° 0 mm 3 mps 753 mmHg 86%
    20:00 +10°C° 0 mm 3 mps 753 mmHg 88%
    21:00 +9°C° 0 mm 3 mps 753 mmHg 88%
    22:00 +9°C° 0 mm 2 mps 753 mmHg 88%
    23:00 +8°C° 0 mm 2 mps 753 mmHg 88%

    Tomorrow, 16 October, Tuesday

    Time Temperature Precipitation Wind Pressure Humidity
    00:00 +8°C° 0 mm 2 mps 753 mmHg 88%
    01:00 +7°C° 0 mm 2 mps 753 mmHg 87%
    02:00 +7°C° 0 mm 2 mps 753 mmHg 87%
    03:00 +7°C° 0 mm 2 mps 752 mmHg 86%
    04:00 +6°C° 0 mm 2 mps 752 mmHg 86%
    05:00 +6°C° 0 mm 2 mps 752 mmHg 86%
    06:00 +7°C° 0 mm 3 mps 752 mmHg 82%
    07:00 +7°C° 0 mm 3 mps 752 mmHg 79%
    08:00 +8°C° 0 mm 3 mps 752 mmHg 75%
    09:00 +9°C° 0 mm 3 mps 752 mmHg 71%
    10:00 +11°C° 0 mm 3 mps 752 mmHg 66%
    11:00 +12°C° 0 mm 4 mps 752 mmHg 62%
    12:00 +12°C° 0 mm 4 mps 751 mmHg 61%
    13:00 +13°C° 0 mm 4 mps 751 mmHg 60%
    14:00 +14°C° 0 mm 4 mps 751 mmHg 58%
    15:00 +12°C° 0 mm 4 mps 751 mmHg 63%
    16:00 +11°C° 0 mm 3 mps 750 mmHg 68%
    17:00 +10°C° 0 mm 3 mps 750 mmHg 73%
    18:00 +10°C° 0 mm 3 mps 750 mmHg 74%
    19:00 +10°C° 0 mm 3 mps 750 mmHg 75%
    20:00 +9°C° 0 mm 3 mps 750 mmHg 77%
    21:00 +9°C° 0 mm 3 mps 751 mmHg 80%
    22:00 +8°C° 0 mm 3 mps 751 mmHg 83%
    23:00 +8°C° 0 mm 3 mps 751 mmHg 86%

    Day after tomorrow, 17 October, Wednesday

    Time Temperature Precipitation Wind Pressure Humidity
    00:00 +7°C° 0 mm 2 mps 751 mmHg 88%
    01:00 +7°C° 0 mm 2 mps 751 mmHg 90%
    02:00 +7°C° 0 mm 2 mps 751 mmHg 93%
    03:00 +6°C° 0 mm 2 mps 752 mmHg 93%
    04:00 +6°C° 0 mm 2 mps 752 mmHg 94%
    05:00 +6°C° 0 mm 2 mps 752 mmHg 95%
    06:00 +8°C° 0 mm 1 mps 752 mmHg 93%
    07:00 +8°C° 0 mm 1 mps 753 mmHg 92%
    08:00 +9°C° 0 mm 1 mps 753 mmHg 91%
    09:00 +10°C° 0 mm 1 mps 753 mmHg 87%
    10:00 +10°C° 0 mm 0 mps 754 mmHg 82%
    11:00 +11°C° 0 mm 0 mps 754 mmHg 78%
    12:00 +11°C° 0 mm 0 mps 754 mmHg 77%
    13:00 +12°C° 0 mm 0 mps 754 mmHg 75%
    14:00 +12°C° 0 mm 0 mps 754 mmHg 73%
    15:00 +11°C° 0 mm 0 mps 754 mmHg 79%
    16:00 +10°C° 0 mm 0 mps 754 mmHg 84%
    17:00 +9°C° 0 mm 0 mps 754 mmHg 89%
    18:00 +10°C° 0 mm 1 mps 754 mmHg 90%
    19:00 +9°C° 0 mm 1 mps 754 mmHg 91%
    20:00 +9°C° 0 mm 1 mps 754 mmHg 93%
    21:00 +9°C° 0 mm 1 mps 754 mmHg 93%
    22:00 +9°C° 0 mm 1 mps 753 mmHg 94%
    23:00 +8°C° 0 mm 1 mps 753 mmHg 94%

    18 October, Thursday

    Time Temperature Precipitation Wind Pressure Humidity
    00:00 +8°C° 0 mm 1 mps 753 mmHg 94%
    01:00 +7°C° 0 mm 2 mps 753 mmHg 94%
    02:00 +7°C° 0 mm 2 mps 753 mmHg 94%
    03:00 +6°C° 0 mm 2 mps 753 mmHg 94%
    04:00 +6°C° 0 mm 2 mps 752 mmHg 94%
    05:00 +6°C° 0 mm 2 mps 752 mmHg 94%
    06:00 +6°C° 0 mm 2 mps 752 mmHg 92%
    07:00 +7°C° 0 mm 2 mps 752 mmHg 90%
    08:00 +7°C° 0 mm 2 mps 752 mmHg 88%
    09:00 +9°C° 0 mm 2 mps 751 mmHg 84%
    10:00 +10°C° 0 mm 2 mps 751 mmHg 79%
    11:00 +12°C° 0 mm 2 mps 751 mmHg 75%
    12:00 +13°C° 0 mm 2 mps 751 mmHg 74%
    13:00 +13°C° 0 mm 2 mps 750 mmHg 73%
    14:00 +13°C° 0 mm 3 mps 750 mmHg 71%
    15:00 +13°C° 0 mm 2 mps 750 mmHg 78%
    16:00 +10°C° 0 mm 2 mps 750 mmHg 84%
    17:00 +9°C° 0 mm 2 mps 750 mmHg 90%
    18:00 +9°C° 0 mm 2 mps 749 mmHg 91%
    19:00 +8°C° 0 mm 2 mps 749 mmHg 92%
    20:00 +8°C° 0 mm 2 mps 749 mmHg 92%
    21:00 +8°C° 0 mm 2 mps 749 mmHg 93%
    22:00 +7°C° 0 mm 2 mps 749 mmHg 93%
    23:00 +7°C° 0 mm 2 mps 749 mmHg 93%

    19 October, Friday

    Time Temperature Precipitation Wind Pressure Humidity
    00:00 +7°C° 0 mm 2 mps 749 mmHg 93%
    01:00 +7°C° 0 mm 2 mps 749 mmHg 94%
    02:00 +6°C° 0 mm 2 mps 749 mmHg 94%
    03:00 +6°C° 0 mm 2 mps 748 mmHg 95%
    04:00 +6°C° 0 mm 2 mps 748 mmHg 95%
    05:00 +6°C° 0 mm 2 mps 748 mmHg 95%
    06:00 +5°C° 0 mm 3 mps 748 mmHg 92%
    07:00 +7°C° 0 mm 3 mps 748 mmHg 90%
    08:00 +7°C° 0 mm 3 mps 748 mmHg 87%
    09:00 +9°C° 0 mm 3 mps 748 mmHg 83%
    10:00 +10°C° 0 mm 3 mps 748 mmHg 79%
    11:00 +11°C° 0 mm 3 mps 748 mmHg 75%
    12:00 +12°C° 0 mm 3 mps 748 mmHg 75%
    13:00 +12°C° 0 mm 3 mps 748 mmHg 76%
    14:00 +12°C° 0 mm 3 mps 748 mmHg 76%
    15:00 +12°C° 0 mm 2 mps 748 mmHg 81%
    16:00 +10°C° 0 mm 2 mps 748 mmHg 85%
    17:00 +9°C° 0 mm 2 mps 748 mmHg 90%
    18:00 +9°C° 0 mm 2 mps 748 mmHg 90%
    19:00 +10°C° 0 mm 1 mps 748 mmHg 90%
    20:00 +9°C° 0 mm 1 mps 748 mmHg 90%
    21:00 +9°C° 0 mm 1 mps 748 mmHg 90%
    22:00 +8°C° 0 mm 1 mps 748 mmHg 91%
    23:00 +8°C° 0 mm 1 mps 748 mmHg 92%

    20 October, Saturday

    Time Temperature Precipitation Wind Pressure Humidity
    00:00 +7°C° 0 mm 1 mps 748 mmHg 92%
    01:00 +7°C° 0 mm 1 mps 748 mmHg 92%
    02:00 +6°C° 0 mm 1 mps 748 mmHg 92%
    03:00 +6°C° 0 mm 1 mps 748 mmHg 92%
    04:00 +6°C° 0 mm 1 mps 748 mmHg 93%
    05:00 +5°C° 0 mm 1 mps 748 mmHg 93%
    06:00 +6°C° 0 mm 1 mps 748 mmHg 91%
    07:00 +6°C° 0 mm 1 mps 748 mmHg 89%
    08:00 +6°C° 0 mm 1 mps 748 mmHg 86%
    09:00 +7°C° 0 mm 1 mps 748 mmHg 79%
    10:00 +8°C° 0 mm 1 mps 748 mmHg 72%
    11:00 +9°C° 0 mm 1 mps 748 mmHg 65%
    12:00 +9°C° 0 mm 1 mps 748 mmHg 63%
    13:00 +10°C° 0 mm 1 mps 747 mmHg 61%
    14:00 +10°C° 0 mm 1 mps 747 mmHg 59%
    15:00 +9°C° 0 mm 1 mps 747 mmHg 64%
    16:00 +8°C° 0 mm 1 mps 747 mmHg 69%
    17:00 +6°C° 0 mm 1 mps 747 mmHg 73%
    18:00 +6°C° 0 mm 1 mps 747 mmHg 75%
    19:00 +6°C° 0 mm 1 mps 747 mmHg 77%
    20:00 +6°C° 0 mm 1 mps 747 mmHg 79%
    21:00 +5°C° 0 mm 1 mps 747 mmHg 81%
    22:00 +5°C° 0 mm 1 mps 747 mmHg 83%
    23:00 +5°C° 0 mm 1 mps 747 mmHg 85%
    Show more